Regional Weather Roundup
Issued by NWS

Home | Current Version | Previous Version | Text Only | Print | Product List | Glossary On
Versions: 1 2 3 4 5 6 7 8 9 10 11 12 13 14 15 16 17 18 19 20 21 22 23 24 25 26 27
000
ASUS42 KKEY 262310
RWRKEY

FLORIDA REGIONAL WEATHER ROUNDUP FOR THE FLORIDA KEYS
NATIONAL WEATHER SERVICE KEY WEST FLORIDA
700 PM EDT SAT MAY 26 2018

...SOUTH FLORIDA AND THE KEYS...

CITY           SKY/WX    TMP DP  RH WIND       PRES   REMARKS
FORT MYERS     LGT RAIN  67  64  90 E18G24    29.85F
SW REGIONAL AP LGT RAIN  66  66 100 E17       29.85F
NAPLES         LGT RAIN  71  32  23 NE10      29.82F
MIAMI          LGT RAIN  75  74  96 E13       29.85F
WEST KENDALL   LGT RAIN  76  72  87 E13       29.84F
HOMESTEAD      DRIZZLE   76  72  87 E16       29.83F
MARATHON       CLOUDY    79  72  79 SE18G30   29.78S
KEY WEST INTL  LGT RAIN  77  76  96 SE25G38   29.77F

...INTERNATIONAL WEATHER...

CITY           SKY/WX    TMP DP  RH WIND       PRES   REMARKS
NASSAU BAHAMAS LGT RAIN  75  73  94 SE10      29.93R
CANCUN MEXICO  MOSUNNY   84  72  65 NW12      29.70F
COZUMEL MEXICO   N/A    N/A N/A N/A MISG        N/A

ADJACENT COASTAL WATERS...

STATION/POSITION TIME  SKY/WX   TEMP    WIND        PRES    WAVE
                                AIR SEA DIR/SP/G            HT/PER
                 (UTC)          (F)     (DEG/KT/KT) (MB)    (FT/S)
PULASKI SHOAL LI 2300            77     120/ 28/ 32 1006.3F
SAND KEY         2250            76                 1007.2F
SOMBRERO KEY     2250            79     100/ 26/ 33 1007.8R
LONG KEY         2200            78 78  120/ 19/ 22 1008.7F
MOLASSES REEF    2300            78 80  120/ 23/ 26 1009.9F
FOWEY ROCKS      2300            77 79  100/ 23/ 25 1010.9F
Buoy 42097       2230               81                N/A     7/ 6

$$




USA.gov is the U.S. government's official web portal to all federal, state and local government web resources and services.